DELTA 1 DEB, 7058

Orbit data source: Space-Track

DELTA 1 DEB, 7058 is space debris in SSO originally from a launch on Tue, 06 Nov 1973 UTC launched from the Air Force Western Test Range (AFWTR). Debris objects in space refer to the collection of defunct objects orbiting the Earth. Examples of debris include non-operational satellites, rocket bodies, and fragments generated from explosions, collisions, or faulty payload assembly.

Loading next visibility...
Identifier
7058, 1973-086BA
Orbit
SSO
Country
Flag of USUS
Related business
Manufacturer
Unknown
Mission
Spacecraft
Bus & Motor
Unknown
Mass
Unknown
Launch date (UTC)
1973-11-06 (52 years ago)
Launch vehicle
Unknown
Launch site
Air Force Western Test Range (AFWTR)
Object type
Payload
Rocket body
Debris
Shape & HBR
Unknown shape, 0.2 m
Radar Cross Section
Small (<0.1 m²)

Expand to show TLE details & history
Last TLE update: 15 hours ago

TLE from 15 hours ago
0 DELTA 1 DEB
1 07058U 73086BA  25292.63652431  .00000405  00000-0  27815-2 0  9998
2 07058 101.8231 276.2769 0002956  86.5962 335.8175 12.54712405368993
Epoch: 2025-10-19T15:16Z
TLE epoch observation values (Epoch: 2025-10-19T15:16:35.700Z)
Latitude
60.24932°
Longitude
-2.59552°
Altitude
1,452.805 km
Speed
7.142 km/s
True Right ascension
16h 59m 36s
True Declination
60° 06' 51"
Sunlit
Object was in daylight at epoch
Visualization orbit readout
Latitude
Unknown
Longitude
Unknown
Altitude
Unknown
Speed
Unknown
Apparent Right ascension
Unknown
Apparent Declination
Unknown
Sunlit
N/A
Visualization observer readout
Local Sidereal Time
01:41:36
Azimuth
Unknown
Elevation
Unknown
Doppler factor
Unknown
Orbital elements
Apogee altitude
1,444.703 km
Perigee altitude
1,440.079 km
Semi-major axis
7,820.528 km
Eccentricity
0.0003
Inclination
101.8231°
RAAN
276.2769°
Arg. of periapsis
86.5962°
True anomaly
335.80362°
Mean anomaly
335.8175°
Eccentric anomaly
335.81056°
Mean motion
3.13826 °/min
Orbital period
114.71 mins
BSTAR
0.0027815
Loading maneuver chart data...
Computing Atmospheric mass density...
Loading historical data...
Loading historical data...
Loading historical data...
Loading historical data...
Loading historical data...
Loading historical data...
Loading historical data...

Documentation

Showing up to 5 results
|